• In Hungary
  • List of Countries
  • For 7 days
  • Water Temperature
  • Satellite Maps
  • Weather Map
  • News
  • Weather Widgets
  • user-avatar
    Login

    Hourly Weather Plymouth

    Today, 23 November, Thursday

    Time Temperature Precipitation Wind Pressure Humidity
    00:00 +12°C° 0.7 mm 10 mps 738 mmHg 90%
    01:00 +12°C° 0.2 mm 10 mps 738 mmHg 90%
    02:00 +11°C° 0.2 mm 10 mps 739 mmHg 89%
    03:00 +11°C° 0.2 mm 10 mps 740 mmHg 88%
    04:00 +9°C° 0.1 mm 10 mps 741 mmHg 85%
    05:00 +8°C° 0.1 mm 10 mps 743 mmHg 82%
    06:00 +7°C° 0.1 mm 9 mps 744 mmHg 79%
    07:00 +7°C° 0 mm 10 mps 745 mmHg 76%
    08:00 +7°C° 0 mm 10 mps 746 mmHg 73%
    09:00 +7°C° 0 mm 10 mps 747 mmHg 69%
    10:00 +7°C° 0 mm 10 mps 748 mmHg 67%
    11:00 +8°C° 0 mm 11 mps 749 mmHg 64%
    12:00 +8°C° 0 mm 11 mps 750 mmHg 61%
    13:00 +8°C° 0 mm 10 mps 750 mmHg 63%
    14:00 +8°C° 0 mm 9 mps 751 mmHg 65%
    15:00 +9°C° 0 mm 7 mps 751 mmHg 67%
    16:00 +8°C° 0.2 mm 6 mps 752 mmHg 70%
    17:00 +8°C° 0.2 mm 5 mps 752 mmHg 73%
    18:00 +7°C° 0.2 mm 4 mps 752 mmHg 75%
    19:00 +8°C° 1.2 mm 3 mps 752 mmHg 80%
    20:00 +7°C° 1.2 mm 3 mps 752 mmHg 84%
    21:00 +7°C° 1.2 mm 2 mps 752 mmHg 88%
    22:00 +7°C° 1.2 mm 3 mps 752 mmHg 86%
    23:00 +6°C° 1.2 mm 5 mps 752 mmHg 84%

    Tomorrow, 24 November, Friday

    Time Temperature Precipitation Wind Pressure Humidity
    00:00 +5°C° 1.2 mm 6 mps 751 mmHg 82%
    01:00 +6°C° 0.3 mm 5 mps 752 mmHg 80%
    02:00 +6°C° 0.3 mm 5 mps 753 mmHg 78%
    03:00 +5°C° 0.3 mm 4 mps 753 mmHg 76%
    04:00 +5°C° 0.1 mm 4 mps 754 mmHg 77%
    05:00 +5°C° 0.1 mm 3 mps 755 mmHg 77%
    06:00 +5°C° 0.1 mm 3 mps 756 mmHg 77%
    07:00 +5°C° 0 mm 3 mps 756 mmHg 77%
    08:00 +5°C° 0 mm 3 mps 757 mmHg 76%
    09:00 +5°C° 0 mm 3 mps 758 mmHg 75%
    10:00 +7°C° 0 mm 2 mps 758 mmHg 70%
    11:00 +8°C° 0 mm 2 mps 758 mmHg 65%
    12:00 +9°C° 0 mm 2 mps 759 mmHg 60%
    13:00 +9°C° 0.1 mm 2 mps 759 mmHg 62%
    14:00 +8°C° 0.1 mm 2 mps 759 mmHg 64%
    15:00 +9°C° 0.1 mm 1 mps 759 mmHg 66%
    16:00 +8°C° 0.1 mm 1 mps 759 mmHg 67%
    17:00 +7°C° 0.1 mm 1 mps 759 mmHg 69%
    18:00 +5°C° 0.1 mm 2 mps 759 mmHg 71%
    19:00 +4°C° 0.2 mm 3 mps 760 mmHg 74%
    20:00 +4°C° 0.2 mm 4 mps 760 mmHg 78%
    21:00 +3°C° 0.2 mm 5 mps 760 mmHg 81%
    22:00 +2°C° 0.1 mm 5 mps 760 mmHg 80%
    23:00 +2°C° 0.1 mm 5 mps 760 mmHg 79%

    Day after tomorrow, 25 November, Saturday

    Time Temperature Precipitation Wind Pressure Humidity
    00:00 +2°C° 0.1 mm 6 mps 760 mmHg 77%
    01:00 +2°C° 0 mm 6 mps 761 mmHg 76%
    02:00 +2°C° 0 mm 6 mps 761 mmHg 75%
    03:00 +2°C° 0 mm 6 mps 761 mmHg 74%
    04:00 +1°C° 0 mm 6 mps 762 mmHg 74%
    05:00 +1°C° 0 mm 6 mps 762 mmHg 74%
    06:00 +1°C° 0 mm 6 mps 762 mmHg 74%
    07:00 +2°C° 0.1 mm 6 mps 763 mmHg 74%
    08:00 +2°C° 0.1 mm 6 mps 763 mmHg 73%
    09:00 +2°C° 0.1 mm 7 mps 764 mmHg 72%
    10:00 +3°C° 0.1 mm 7 mps 764 mmHg 69%
    11:00 +4°C° 0.1 mm 7 mps 765 mmHg 66%
    12:00 +5°C° 0.1 mm 8 mps 765 mmHg 62%
    13:00 +5°C° 0.1 mm 8 mps 765 mmHg 64%
    14:00 +5°C° 0.1 mm 7 mps 765 mmHg 66%
    15:00 +4°C° 0.1 mm 7 mps 765 mmHg 67%
    16:00 +4°C° 0.1 mm 7 mps 765 mmHg 69%
    17:00 +3°C° 0.1 mm 7 mps 766 mmHg 71%
    18:00 +3°C° 0.1 mm 7 mps 766 mmHg 73%
    19:00 +3°C° 0.1 mm 7 mps 766 mmHg 73%
    20:00 +3°C° 0.1 mm 7 mps 766 mmHg 74%
    21:00 +3°C° 0.1 mm 7 mps 767 mmHg 74%
    22:00 +3°C° 0.1 mm 7 mps 767 mmHg 74%
    23:00 +2°C° 0.1 mm 7 mps 767 mmHg 75%

    26 November, Sunday

    Time Temperature Precipitation Wind Pressure Humidity
    00:00 +2°C° 0.1 mm 7 mps 767 mmHg 76%
    01:00 +2°C° 0.1 mm 7 mps 768 mmHg 75%
    02:00 +2°C° 0.1 mm 7 mps 768 mmHg 75%
    03:00 +2°C° 0.1 mm 7 mps 768 mmHg 75%
    04:00 +3°C° 0.1 mm 7 mps 768 mmHg 74%
    05:00 +3°C° 0.1 mm 7 mps 768 mmHg 73%
    06:00 +3°C° 0.1 mm 7 mps 768 mmHg 73%
    07:00 +4°C° 0.1 mm 6 mps 769 mmHg 74%
    08:00 +4°C° 0.1 mm 6 mps 769 mmHg 75%
    09:00 +5°C° 0.1 mm 5 mps 769 mmHg 76%
    10:00 +5°C° 0.1 mm 6 mps 769 mmHg 73%
    11:00 +5°C° 0.1 mm 6 mps 769 mmHg 70%
    12:00 +7°C° 0.1 mm 6 mps 769 mmHg 67%
    13:00 +7°C° 0 mm 6 mps 769 mmHg 69%
    14:00 +7°C° 0 mm 6 mps 769 mmHg 71%
    15:00 +5°C° 0 mm 6 mps 769 mmHg 72%
    16:00 +5°C° 0 mm 6 mps 769 mmHg 74%
    17:00 +5°C° 0 mm 5 mps 769 mmHg 76%
    18:00 +3°C° 0 mm 5 mps 769 mmHg 77%
    19:00 +4°C° 0 mm 4 mps 769 mmHg 78%
    20:00 +4°C° 0 mm 4 mps 769 mmHg 78%
    21:00 +5°C° 0 mm 4 mps 769 mmHg 79%
    22:00 +5°C° 0 mm 5 mps 769 mmHg 81%
    23:00 +5°C° 0 mm 5 mps 768 mmHg 82%

    27 November, Monday

    Time Temperature Precipitation Wind Pressure Humidity
    00:00 +4°C° 0 mm 6 mps 768 mmHg 84%
    01:00 +5°C° 0.1 mm 7 mps 767 mmHg 85%
    02:00 +5°C° 0.1 mm 8 mps 767 mmHg 85%
    03:00 +6°C° 0.1 mm 8 mps 766 mmHg 86%
    04:00 +6°C° 0.1 mm 9 mps 766 mmHg 85%
    05:00 +6°C° 0.1 mm 10 mps 765 mmHg 83%
    06:00 +7°C° 0.1 mm 10 mps 765 mmHg 82%
    07:00 +7°C° 0.5 mm 11 mps 765 mmHg 84%
    08:00 +7°C° 0.5 mm 11 mps 765 mmHg 86%
    09:00 +8°C° 0.5 mm 11 mps 764 mmHg 88%
    10:00 +8°C° 0.4 mm 10 mps 764 mmHg 83%
    11:00 +8°C° 0.4 mm 9 mps 764 mmHg 78%
    12:00 +9°C° 0.4 mm 8 mps 764 mmHg 73%
    13:00 +9°C° 0.1 mm 8 mps 763 mmHg 75%
    14:00 +9°C° 0.1 mm 7 mps 763 mmHg 76%
    15:00 +8°C° 0.1 mm 7 mps 763 mmHg 78%
    16:00 +8°C° 0 mm 7 mps 762 mmHg 79%
    17:00 +8°C° 0 mm 7 mps 762 mmHg 79%
    18:00 +6°C° 0 mm 7 mps 762 mmHg 80%
    19:00 +8°C° 0.1 mm 7 mps 761 mmHg 80%
    20:00 +8°C° 0.1 mm 7 mps 761 mmHg 81%
    21:00 +7°C° 0.1 mm 8 mps 761 mmHg 81%
    22:00 +7°C° 0.2 mm 8 mps 760 mmHg 82%
    23:00 +7°C° 0.2 mm 9 mps 759 mmHg 83%

    28 November, Tuesday

    Time Temperature Precipitation Wind Pressure Humidity
    00:00 +7°C° 0.2 mm 10 mps 758 mmHg 85%
    01:00 +7°C° 0.6 mm 10 mps 758 mmHg 83%
    02:00 +7°C° 0.6 mm 11 mps 757 mmHg 81%
    03:00 +7°C° 0.6 mm 11 mps 756 mmHg 80%
    04:00 +7°C° 0.1 mm 11 mps 756 mmHg 79%
    05:00 +6°C° 0.1 mm 10 mps 756 mmHg 79%
    06:00 +6°C° 0.1 mm 10 mps 755 mmHg 79%
    07:00 +6°C° 0.1 mm 9 mps 755 mmHg 79%
    08:00 +6°C° 0.1 mm 9 mps 755 mmHg 78%
    09:00 +5°C° 0.1 mm 9 mps 755 mmHg 77%
    10:00 +6°C° 0.2 mm 9 mps 754 mmHg 77%
    11:00 +7°C° 0.2 mm 9 mps 754 mmHg 77%
    12:00 +7°C° 0.2 mm 8 mps 754 mmHg 77%
    13:00 +7°C° 0.1 mm 8 mps 753 mmHg 78%
    14:00 +8°C° 0.1 mm 7 mps 753 mmHg 80%
    15:00 +6°C° 0.1 mm 7 mps 753 mmHg 82%
    16:00 +7°C° 0.1 mm 6 mps 753 mmHg 85%
    17:00 +5°C° 0.1 mm 6 mps 753 mmHg 88%
    18:00 +5°C° 0.1 mm 5 mps 753 mmHg 91%
    19:00 +5°C° 0.1 mm 5 mps 754 mmHg 89%
    20:00 +4°C° 0.1 mm 6 mps 754 mmHg 88%
    21:00 +4°C° 0.1 mm 6 mps 754 mmHg 87%
    22:00 +3°C° 0.1 mm 6 mps 754 mmHg 86%
    23:00 +3°C° 0.1 mm 6 mps 754 mmHg 86%
    Show more